EW4479 Weather Reports


Display with metric or nautical units.
time (UTC)temp
F
wind
direction
speed
MPH
gust
MPH
rain 1hr
in
rain 24hr
in
rain mn
in
humidity
%
barometer
mb
20221206051514 31 246 0.0 0.0 0.00 0.00 0.00 98 1018.1
20221206051014 31 246 0.0 0.0 0.00 0.00 0.00 98 1018.1
20221206050512 31 246 0.0 1.0 0.00 0.00 0.00 98 1018.1
20221206050010 31 246 0.0 2.0 0.00 0.00 0.00 98 1018.2
20221206045522 31 246 0.0 2.0 0.00 0.00 0.00 98 1018.1
20221206045003 31 246 0.0 1.0 0.00 0.00 0.00 98 1018.1
20221206044510 31 246 0.0 1.0 0.00 0.00 0.00 98 1018.1
20221206044002 31 246 0.0 1.0 0.00 0.00 0.00 98 1018.1
20221206043457 31 246 0.0 2.0 0.00 0.00 0.00 98 1018.1
20221206042951 31 246 0.0 2.0 0.00 0.00 0.00 98 1018.2
20221206042449 31 246 0.0 3.0 0.00 0.00 0.00 98 1018.1
20221206041949 31 246 0.0 3.0 0.00 0.00 0.00 98 1018.3
20221206041444 31 246 0.0 2.0 0.00 0.00 0.00 98 1018.3
20221206040940 31 246 0.0 2.0 0.00 0.00 0.00 98 1018.3
20221206040441 31 247 0.0 3.0 0.00 0.00 0.00 98 1018.3
20221206035940 32 240 0.0 3.0 0.00 0.00 0.00 98 1018.3
20221206035433 32 251 1.0 3.0 0.00 0.00 0.00 98 1018.3
20221206034937 32 249 0.0 3.0 0.00 0.00 0.00 98 1018.2
20221206034432 32 249 1.0 5.0 0.00 0.00 0.00 98 1018.3
20221206033931 32 240 2.0 5.0 0.00 0.00 0.00 98 1018.2
20221206032429 32 262 0.0 6.0 0.00 0.00 0.00 98 1018.4
20221206031923 32 253 2.0 3.0 0.00 0.00 0.00 98 1018.4
20221206025437 33 240 1.0 3.0 0.00 0.00 0.00 98 1018.4
20221206024916 33 240 1.0 3.0 0.00 0.00 0.00 98 1018.6
20221206024412 33 240 0.0 3.0 0.00 0.00 0.00 98 1018.6
20221206023913 33 240 0.0 5.0 0.00 0.00 0.00 98 1018.4
20221206023408 33 240 0.0 5.0 0.00 0.00 0.00 98 1018.8
20221206022908 33 271 2.0 5.0 0.00 0.00 0.00 98 1018.7
20221206022404 33 241 2.0 3.0 0.00 0.00 0.00 98 1018.8
20221206021402 33 245 1.0 3.0 0.00 0.00 0.00 98 1018.9
20221206020402 33 258 1.0 3.0 0.00 0.00 0.00 98 1019.0
20221206015402 33 259 0.0 3.0 0.00 0.00 0.00 98 1019.0
20221206014903 33 259 1.0 3.0 0.00 0.00 0.00 98 1018.9
20221206014401 32 259 1.0 4.0 0.00 0.00 0.00 98 1019.0
20221206013904 32 242 1.0 4.0 0.00 0.00 0.00 98 1019.0
20221206012903 32 284 0.0 1.0 0.00 0.00 0.00 97 1019.2
20221206012401 32 284 0.0 2.0 0.00 0.00 0.00 97 1019.2
20221206011903 32 284 0.0 2.0 0.00 0.00 0.00 97 1019.2
20221206011402 32 244 0.0 1.0 0.00 0.00 0.00 97 1019.3
20221206010402 33 244 0.0 0.0 0.00 0.00 0.00 97 1019.2
20221206005903 33 244 0.0 0.0 0.00 0.00 0.00 97 1019.2
20221206005401 33 244 0.0 0.0 0.00 0.00 0.00 97 1019.3
20221206004401 33 244 0.0 0.0 0.00 0.00 0.00 97 1019.3
20221206003908 33 284 0.0 1.0 0.00 0.00 0.00 97 1019.3
20221206003402 33 284 0.0 1.0 0.00 0.00 0.00 97 1019.2
20221206002402 33 284 0.0 3.0 0.00 0.00 0.00 97 1019.2
20221206001903 33 284 0.0 3.0 0.00 0.00 0.00 97 1019.2
20221206001402 33 272 0.0 0.0 0.00 0.00 0.00 97 1019.3
20221206000904 33 272 0.0 0.0 0.00 0.00 0.00 98 1019.4
20221206000416 34 272 0.0 0.0 0.00 0.00 0.00 97 1019.3
20221205235903 34 272 0.0 2.0 0.00 0.00 0.00 98 1019.3
20221205235407 34 272 0.0 2.0 0.00 0.00 0.00 98 1019.4
20221205234901 34 272 0.0 1.0 0.00 0.00 0.00 97 1019.5
20221205234402 34 288 0.0 1.0 0.00 0.00 0.00 98 1019.4
20221205233903 34 288 0.0 2.0 0.00 0.00 0.00 97 1019.5
20221205233402 34 284 0.0 2.0 0.00 0.00 0.00 97 1019.5
20221205232902 33 288 0.0 1.0 0.00 0.00 0.00 97 1019.4
20221205231902 33 284 0.0 1.0 0.00 0.00 0.00 97 1019.5
20221205231402 33 286 0.0 3.0 0.00 0.00 0.00 97 1019.4
20221205230416 33 250 0.0 2.0 0.00 0.00 0.00 97 1019.5
20221205225903 33 239 0.0 1.0 0.00 0.00 0.00 97 1019.6
20221205225402 33 235 0.0 2.0 0.00 0.00 0.00 97 1019.6
20221205224858 33 231 0.0 3.0 0.00 0.00 0.00 97 1019.5
20221205224351 33 231 1.0 3.0 0.00 0.00 0.00 97 1019.6
20221205223846 33 195 0.0 5.0 0.00 0.00 0.00 96 1019.6
20221205223344 33 273 2.0 5.0 0.00 0.00 0.00 96 1019.6
20221205222841 33 263 1.0 3.0 0.00 0.00 0.00 96 1019.5
20221205222346 33 252 1.0 3.0 0.00 0.00 0.00 96 1019.5
20221205221839 34 246 1.0 3.0 0.00 0.00 0.00 96 1019.5
20221205220839 34 246 0.0 2.0 0.00 0.00 0.00 96 1019.5
20221205215834 34 246 0.0 2.0 0.00 0.00 0.00 96 1019.5
20221205215333 34 246 0.0 2.0 0.00 0.00 0.00 96 1019.4
20221205214830 34 246 1.0 2.0 0.00 0.00 0.00 96 1019.4
20221205214329 34 246 1.0 2.0 0.00 0.00 0.00 96 1019.4
20221205213829 35 246 1.0 2.0 0.00 0.00 0.00 96 1019.2
20221205212829 35 246 2.0 4.0 0.00 0.00 0.00 96 1019.2
20221205211823 35 255 2.0 4.0 0.00 0.00 0.00 96 1019.2
20221205211319 35 254 3.0 4.0 0.00 0.00 0.00 96 1019.2
20221205210307 35 252 2.0 6.0 0.00 0.00 0.00 96 1019.3
20221205205805 35 264 1.0 6.0 0.00 0.00 0.00 96 1019.4
20221205204318 35 243 2.0 3.0 0.00 0.00 0.00 96 1019.4
20221205203803 35 252 0.0 2.0 0.00 0.00 0.00 96 1019.4
20221205202803 35 254 0.0 2.0 0.00 0.00 0.00 96 1019.3
20221205202305 35 240 0.0 2.0 0.00 0.00 0.00 96 1019.4
20221205201803 35 240 0.0 2.0 0.00 0.00 0.00 96 1019.5
20221205201303 35 240 0.0 4.0 0.00 0.00 0.00 96 1019.4
20221205200802 35 254 2.0 4.0 0.00 0.00 0.00 96 1019.5
20221205200302 35 258 2.0 4.0 0.00 0.00 0.00 96 1019.5
20221205195802 35 250 2.0 4.0 0.00 0.00 0.00 96 1019.6
20221205195305 35 250 2.0 4.0 0.00 0.00 0.00 96 1019.5
20221205194801 35 223 2.0 4.0 0.00 0.00 0.00 96 1019.5
20221205192801 35 223 1.0 4.0 0.00 0.00 0.00 97 1019.6
20221205192329 35 240 2.0 5.0 0.00 0.00 0.00 97 1019.6
20221205191803 35 223 3.0 5.0 0.00 0.00 0.00 97 1019.6
20221205191302 35 224 2.0 3.0 0.00 0.00 0.00 97 1019.6
20221205190802 35 224 1.0 3.0 0.00 0.00 0.00 97 1019.6
20221205190302 35 229 1.0 3.0 0.00 0.00 0.00 97 1019.5
20221205185801 35 225 1.0 4.0 0.00 0.00 0.00 97 1019.5
20221205185300 35 220 2.0 4.0 0.00 0.00 0.00 97 1019.4
20221205184800 35 263 1.0 4.0 0.00 0.00 0.00 97 1019.4
20221205184302 35 269 2.0 4.0 0.00 0.00 0.00 97 1019.4
20221205183801 35 244 1.0 4.0 0.00 0.00 0.00 97 1019.4
20221205182306 35 252 2.0 5.0 0.00 0.00 0.00 97 1019.3
20221205181800 36 240 1.0 4.0 0.00 0.00 0.00 97 1019.3
20221205181303 36 221 1.0 4.0 0.00 0.00 0.00 97 1019.3
20221205180803 36 209 0.0 1.0 0.00 0.00 0.00 97 1019.3
20221205180304 36 225 0.0 1.0 0.00 0.00 0.00 97 1019.4
20221205175801 36 225 0.0 2.0 0.00 0.00 0.00 97 1019.4
20221205175316 36 225 1.0 3.0 0.00 0.00 0.00 97 1019.3
20221205174802 36 225 1.0 3.0 0.00 0.00 0.00 97 1019.3
20221205174303 36 216 1.0 4.0 0.00 0.00 0.00 97 1019.4
20221205173302 36 218 3.0 5.0 0.00 0.00 0.00 97 1019.4
20221205172801 36 216 2.0 5.0 0.00 0.00 0.00 97 1019.5
20221205172305 36 223 1.0 4.0 0.00 0.00 0.00 97 1019.4
20221205171815 36 229 1.0 3.0 0.00 0.00 0.00 97 1019.5
20221205171304 36 232 1.0 4.0 0.00 0.00 0.00 97 1019.5
20221205170800 36 242 2.0 4.0 0.00 0.00 0.00 97 1019.3
20221205170302 36 257 3.0 4.0 0.00 0.00 0.00 97 1019.3
20221205165801 36 248 2.0 4.0 0.00 0.00 0.00 97 1019.3
20221205165305 36 262 2.0 7.0 0.00 0.00 0.00 98 1019.4
20221205164800 36 263 3.0 7.0 0.00 0.00 0.00 97 1019.3
20221205163803 37 259 1.0 5.0 0.00 0.00 0.00 98 1019.1
20221205162802 37 251 1.0 2.0 0.00 0.00 0.00 98 1019.1
20221205161801 37 251 0.0 1.0 0.00 0.00 0.00 97 1019.3
20221205161301 37 251 0.0 2.0 0.00 0.00 0.00 97 1019.3
20221205160810 37 251 0.0 2.0 0.00 0.00 0.00 97 1019.2
20221205160301 37 251 0.0 0.0 0.00 0.00 0.00 97 1019.2
20221205155301 37 251 1.0 1.0 0.00 0.00 0.00 98 1019.2
20221205154801 37 251 0.0 0.0 0.00 0.00 0.00 98 1019.3
20221205154301 37 251 0.0 0.0 0.00 0.00 0.00 98 1019.2
20221205153301 37 251 0.0 0.0 0.00 0.00 0.00 98 1019.1
20221205152801 37 251 0.0 0.0 0.00 0.00 0.00 97 1019.0
20221205152300 37 251 0.0 0.0 0.00 0.00 0.00 97 1019.0
20221205151800 37 251 0.0 0.0 0.00 0.00 0.00 97 1019.0
20221205150802 37 251 0.0 2.0 0.00 0.00 0.00 97 1019.0
20221205150310 37 251 0.0 2.0 0.00 0.00 0.00 97 1019.0
20221205145804 37 251 0.0 1.0 0.00 0.00 0.00 97 1018.9
20221205145304 37 251 0.0 2.0 0.00 0.00 0.00 97 1019.0
20221205144758 37 251 1.0 3.0 0.00 0.00 0.00 97 1019.0
20221205144255 37 251 1.0 3.0 0.00 0.00 0.00 97 1019.1
20221205143755 37 246 1.0 3.0 0.00 0.00 0.00 97 1019.1
20221205142245 37 262 2.0 3.0 0.00 0.00 0.00 97 1019.0
20221205141235 38 250 1.0 2.0 0.00 0.00 0.00 97 1018.7
20221205140730 38 284 0.0 3.0 0.00 0.00 0.00 97 1018.4
20221205135730 38 285 1.0 4.0 0.00 0.00 0.00 97 1018.7
20221205135247 38 268 1.0 4.0 0.00 0.00 0.00 97 1018.8
20221205134730 38 229 1.0 3.0 0.00 0.00 0.00 97 1018.8
20221205134231 38 309 1.0 4.0 0.00 0.00 0.00 97 1018.8
20221205133231 38 265 0.0 3.0 0.00 0.00 0.00 96 1018.6
20221205132728 38 269 0.0 4.0 0.00 0.00 0.00 96 1018.8
20221205132229 38 298 0.0 4.0 0.00 0.00 0.00 96 1018.9
20221205131727 38 277 2.0 6.0 0.00 0.00 0.00 96 1018.8
20221205131223 38 278 2.0 6.0 0.00 0.00 0.00 96 1018.8
20221205130718 38 288 1.0 4.0 0.00 0.00 0.00 96 1018.9
20221205130215 38 254 2.0 4.0 0.00 0.00 0.00 96 1018.8
20221205125715 38 265 1.0 4.0 0.00 0.00 0.00 96 1018.9
20221205125209 38 238 1.0 4.0 0.00 0.00 0.00 96 1018.9
20221205124705 38 252 1.0 3.0 0.00 0.00 0.00 96 1018.9
20221205124205 38 234 1.0 4.0 0.00 0.00 0.00 97 1018.9
20221205123656 38 268 1.0 4.0 0.00 0.00 0.00 97 1018.9
20221205123156 38 310 1.0 3.0 0.00 0.00 0.00 97 1019.0
20221205122144 38 277 1.0 4.0 0.00 0.00 0.00 97 1018.9
20221205121637 38 271 2.0 4.0 0.00 0.00 0.00 97 1018.8
20221205121137 38 251 2.0 4.0 0.00 0.00 0.00 98 1018.9
20221205120637 38 263 2.0 4.0 0.00 0.00 0.00 98 1018.9
20221205120136 38 272 1.0 4.0 0.00 0.00 0.00 98 1018.8
20221205115636 38 236 2.0 4.0 0.00 0.00 0.00 98 1018.9
20221205115130 38 274 2.0 7.0 0.00 0.00 0.00 99 1018.9
20221205114629 38 263 2.0 7.0 0.00 0.00 0.00 98 1018.9
20221205114130 38 240 1.0 3.0 0.00 0.00 0.00 99 1018.9
20221205113629 38 208 1.0 4.0 0.00 0.00 0.00 99 1018.9
20221205112629 38 185 1.0 5.0 0.00 0.00 0.00 99 1018.9
20221205112130 38 197 1.0 2.0 0.00 0.00 0.00 99 1018.8
20221205111629 38 197 1.0 2.0 0.00 0.00 0.00 99 1018.8
20221205111129 37 31 1.0 2.0 0.00 0.00 0.00 100 1018.8
20221205110629 37 31 0.0 2.0 0.00 0.00 0.00 100 1018.9
20221205110130 37 253 0.0 0.0 0.00 0.00 0.00 100 1018.9
20221205105630 37 253 0.0 0.0 0.00 0.00 0.00 100 1019.0
20221205105130 37 253 0.0 0.0 0.00 0.00 0.00 100 1018.9
20221205104629 37 253 0.0 0.0 0.00 0.00 0.00 100 1019.0
20221205103146 37 253 0.0 0.0 0.00 0.00 0.00 100 1019.0
20221205102629 37 253 0.0 0.0 0.00 0.00 0.00 100 1019.0
20221205102129 37 253 0.0 0.0 0.00 0.00 0.00 100 1019.0
20221205101629 37 253 0.0 0.0 0.00 0.00 0.00 100 1019.0
20221205100631 37 253 0.0 0.0 0.00 0.00 0.00 100 1019.1
20221205100131 36 253 0.0 0.0 0.00 0.00 0.00 100 1019.2
20221205095631 36 253 0.0 0.0 0.00 0.00 0.00 100 1019.1
20221205095130 36 253 0.0 0.0 0.00 0.00 0.00 100 1019.1
20221205094629 36 253 0.0 0.0 0.00 0.00 0.00 100 1019.0
20221205094130 36 253 0.0 1.0 0.00 0.00 0.00 100 1019.0
20221205093629 36 253 0.0 1.0 0.00 0.00 0.00 100 1019.0
20221205092629 36 253 0.0 1.0 0.00 0.00 0.00 100 1019.0
20221205091629 36 253 0.0 2.0 0.00 0.00 0.00 100 1018.9
20221205091130 36 253 0.0 2.0 0.00 0.00 0.00 100 1018.7
20221205090132 36 253 0.0 0.0 0.00 0.00 0.00 100 1018.6
20221205085631 36 253 0.0 0.0 0.00 0.00 0.00 100 1018.7
20221205085129 35 253 0.0 0.0 0.00 0.00 0.00 100 1018.4
20221205084629 35 253 0.0 0.0 0.00 0.00 0.00 100 1018.6
20221205084128 35 253 0.0 0.0 0.00 0.00 0.00 100 1018.4
20221205083630 35 253 0.0 0.0 0.00 0.00 0.00 100 1018.4
20221205083128 35 253 0.0 0.0 0.00 0.00 0.00 100 1018.3
20221205082632 35 253 0.0 0.0 0.00 0.00 0.00 100 1018.1
20221205082131 35 253 0.0 0.0 0.00 0.00 0.00 100 1018.1
20221205081628 35 253 0.0 0.0 0.00 0.00 0.00 100 1018.2
20221205080629 35 253 0.0 0.0 0.00 0.00 0.00 100 1018.2
20221205080129 35 253 0.0 0.0 0.00 0.00 0.00 100 1018.2
20221205075629 35 253 0.0 0.0 0.00 0.00 0.00 100 1018.3
20221205075131 34 253 0.0 0.0 0.00 0.00 0.00 100 1018.2
20221205074628 34 253 0.0 0.0 0.00 0.00 0.00 100 1018.1
20221205073630 34 253 0.0 2.0 0.00 0.00 0.00 100 1017.9
20221205073130 34 253 1.0 2.0 0.00 0.00 0.00 100 1018.0
20221205072630 34 256 0.0 1.0 0.00 0.00 0.00 100 1018.0
20221205071628 34 256 0.0 0.0 0.00 0.00 0.00 99 1017.8
20221205071128 34 256 0.0 0.0 0.00 0.00 0.00 99 1017.7
20221205070629 34 256 0.0 0.0 0.00 0.00 0.00 99 1017.6
20221205070129 34 256 0.0 0.0 0.00 0.00 0.00 99 1017.8
20221205065630 34 256 0.0 0.0 0.00 0.00 0.00 99 1017.6
20221205065129 34 256 0.0 0.0 0.00 0.00 0.00 99 1017.7
20221205064629 34 256 0.0 0.0 0.00 0.00 0.00 99 1017.6
20221205064128 34 256 0.0 1.0 0.00 0.00 0.00 99 1017.6
20221205063129 34 256 0.0 2.0 0.00 0.00 0.00 99 1017.6
20221205062628 34 256 0.0 1.0 0.00 0.00 0.00 99 1017.4
20221205061629 34 256 0.0 1.0 0.00 0.00 0.00 100 1017.4
20221205061128 34 256 0.0 0.0 0.00 0.00 0.00 99 1017.3
20221205060629 34 256 0.0 1.0 0.00 0.00 0.00 99 1017.2
20221205055630 34 256 0.0 3.0 0.00 0.00 0.00 99 1017.1
20221205054629 34 256 0.0 0.0 0.00 0.00 0.00 99 1017.0
20221205053630 34 256 0.0 1.0 0.00 0.00 0.00 100 1016.9
20221205053129 34 256 0.0 1.0 0.00 0.00 0.00 99 1016.9
20221205052630 34 256 0.0 2.0 0.00 0.00 0.00 100 1016.8
20221205052128 34 256 0.0 2.0 0.00 0.00 0.00 100 1016.9